This is the latest recevied weather packets stored in our database for station/object KB9YVI-11. If no packets are shown the sender has not sent any weather packets the latest 10 day(s).
| Time | Temp. | Humidity | Pressure | Rain* | Wind** | Luminosity | Snow |
|---|---|---|---|---|---|---|---|
| 1788211321 | 34.44° C | 74% | 0 hPa | 0 mm | - | - | - |
| 1788210122 | 33.89° C | 77% | 0 hPa | 0 mm | - | - | - |
| 1788208622 | 35° C | 72% | 0 hPa | 0 mm | - | - | - |
| 1788207721 | 35° C | 73% | 0 hPa | 0 mm | - | - | - |
| 1788207424 | 34.44° C | 73% | 0 hPa | 0 mm | - | - | - |
| 1788207122 | 34.44° C | 76% | 0 hPa | 0 mm | - | - | - |
| 1788206822 | 33.89° C | 74% | 0 hPa | 0 mm | - | - | - |
| 1788206222 | 33.33° C | 75% | 0 hPa | 0 mm | - | - | - |
| 1788205624 | 33.33° C | 77% | 0 hPa | 0 mm | - | - | - |
| 1788205022 | 33.89° C | 76% | 0 hPa | 0 mm | - | - | - |
| 1788204724 | 33.89° C | 76% | 0 hPa | 0 mm | - | - | - |
| 1788204121 | 34.44° C | 73% | 0 hPa | 0 mm | - | - | - |
| 1788203222 | 33.33° C | 79% | 0 hPa | 0 mm | - | - | - |
| 1788202622 | 32.78° C | 80% | 0 hPa | 0 mm | - | - | - |
| 1788202022 | 32.78° C | 79% | 0 hPa | 0 mm | - | - | - |
| 1788201423 | 32.78° C | 80% | 0 hPa | 0 mm | - | - | - |
| 1788200823 | 32.78° C | 78% | 0 hPa | 0 mm | - | - | - |
| 1788200521 | 32.78° C | 82% | 0 hPa | 0 mm | - | - | - |
| 1788198423 | 32.22° C | 83% | 0 hPa | 0 mm | - | - | - |
| 1788198123 | 32.22° C | 82% | 0 hPa | 0 mm | - | - | - |
| 1788197823 | 32.78° C | 81% | 0 hPa | 0 mm | - | - | - |
| 1788197523 | 32.78° C | 83% | 0 hPa | 0 mm | - | - | - |
| 1788196940 | 32.78° C | 88% | 0 hPa | 0 mm | - | - | - |
| 1788196323 | 31.67° C | 87% | 0 hPa | 0 mm | - | - | - |
| 1788196023 | 31.67° C | 74% | 0 hPa | 0 mm | - | - | - |
* Rain latest hour (hover to see other rain measurements)
** Current wind speed in m/s (hover to see current wind gust speed)